Terug naar catalogus

COSMOS 1275 DEB

ActiefPO
NORAD 15780·DEBRIS·🇷🇺 Russia

Gelanceerd Jun 4, 1981 vanaf Plesetsk Cosmodrome

Loading…

Volgende Passages (komende 24 uur)

TLE

VersSource: Space-Track

Epoch: Sep 14, 2026, 13:12 UTC

1 15780U 81053KE  26257.55027001  .00000869  00000-0  60907-3 0  9998
2 15780  82.8176 180.9263 0049316 247.0226 235.0924 13.96740461 92704

Volg COSMOS 1275 DEB in realtime met AllMySat

Download on the App Store